Location: Cowley
(49.5667°N, 114.0667°W)
Time: 13:06:20
(UTC+00:00)

N. Korean satellite - Pass Details

Date: 04 December 2021
Orbit: 446 x 491 km, 97.3° (Epoch: 18 January)

Event Time Altitude Azimuth Distance (km) Brightness Sun altitude
Rises 14:07:37 0° 358° (N) 2,474 9.9 -10.5°
Reaches altitude 10° 14:10:13 10° 336° (NNW) 1,590 8.7 -10.1°
Maximum altitude 14:12:22 16° 297° (WNW) 1,262 8.0 -9.8°
Drops below altitude 10° 14:14:30 10° 257° (WSW) 1,577 8.7 -9.5°
Sets 14:17:10 0° 235° (SW) 2,477 9.9 -9.1°
